Location: Staunton
(38.1490°N, 79.0720°W)
Time: 16:20:22
(UTC-05:00)

ISS - Pass Details

Date: 16 January 2018
Orbit: 401 x 407 km, 51.6° (Epoch: 17 January)

Event Time Altitude Azimuth Distance (km) Brightness Sun altitude
Exits shadow 06:20:27 25° 262° (W) 861 -2.7 -13.8°
Maximum altitude 06:21:29 31° 226° (SW) 735 -2.8 -13.6°
Drops below altitude 10° 06:24:25 10° 162° (SSE) 1,452 -0.5 -13.0°
Sets 06:26:37 0° 152° (SSE) 2,308 0.7 -12.6°
